When you browse on this site, cookies collect data to enhance your experience and personalize the content and advertising you see.
Visit our Privacy Policy to learn more. By continuing to use the site, you agree to this use of cookies and data.
  • In Schweiz
  • Länderverzeichnis
  • Für 7 Tage
  • Wassertemperatur
  • Wetterkarte
  • Widgets
  • user-avatar
    Anmelden

    Stündliche Wetter Bogolyubovka

    Heute, 24 August, Samstag

    Zeit Temperatur Niederschläge Wind Luftdruck Luftfeuchtigkeit
    00:00 +16°C° 0 mm 2 m/S 752 mmHg 83%
    01:00 +15°C° 0 mm 2 m/S 753 mmHg 84%
    02:00 +15°C° 0 mm 2 m/S 753 mmHg 85%
    03:00 +14°C° 0 mm 2 m/S 753 mmHg 86%
    04:00 +14°C° 0 mm 2 m/S 753 mmHg 87%
    05:00 +14°C° 0 mm 2 m/S 753 mmHg 87%
    06:00 +14°C° 0 mm 2 m/S 752 mmHg 88%
    07:00 +16°C° 0 mm 2 m/S 753 mmHg 81%
    08:00 +17°C° 0 mm 2 m/S 753 mmHg 75%
    09:00 +20°C° 0 mm 1 m/S 753 mmHg 68%
    10:00 +21°C° 0 mm 1 m/S 753 mmHg 62%
    11:00 +23°C° 0 mm 1 m/S 752 mmHg 55%
    12:00 +24°C° 0 mm 1 m/S 752 mmHg 49%
    13:00 +24°C° 0 mm 1 m/S 752 mmHg 46%
    14:00 +25°C° 0 mm 1 m/S 752 mmHg 44%
    15:00 +25°C° 0 mm 1 m/S 752 mmHg 41%
    16:00 +25°C° 0 mm 1 m/S 751 mmHg 45%
    17:00 +24°C° 0 mm 1 m/S 751 mmHg 49%
    18:00 +24°C° 0 mm 2 m/S 750 mmHg 53%
    19:00 +21°C° 0 mm 2 m/S 750 mmHg 58%
    20:00 +20°C° 0 mm 2 m/S 751 mmHg 63%
    21:00 +18°C° 0 mm 2 m/S 751 mmHg 68%
    22:00 +17°C° 0 mm 2 m/S 750 mmHg 70%
    23:00 +17°C° 0 mm 2 m/S 750 mmHg 72%

    Morgen, 25 August, Sonntag

    Zeit Temperatur Niederschläge Wind Luftdruck Luftfeuchtigkeit
    00:00 +16°C° 0 mm 2 m/S 750 mmHg 74%
    01:00 +16°C° 0 mm 2 m/S 750 mmHg 77%
    02:00 +16°C° 0 mm 2 m/S 750 mmHg 79%
    03:00 +14°C° 0 mm 3 m/S 750 mmHg 81%
    04:00 +14°C° 0 mm 3 m/S 750 mmHg 84%
    05:00 +14°C° 0 mm 3 m/S 750 mmHg 88%
    06:00 +14°C° 0 mm 3 m/S 750 mmHg 91%
    07:00 +16°C° 0 mm 3 m/S 750 mmHg 85%
    08:00 +17°C° 0 mm 4 m/S 750 mmHg 79%
    09:00 +19°C° 0 mm 4 m/S 751 mmHg 73%
    10:00 +20°C° 0 mm 4 m/S 751 mmHg 67%
    11:00 +20°C° 0 mm 5 m/S 751 mmHg 61%
    12:00 +21°C° 0 mm 5 m/S 751 mmHg 56%
    13:00 +22°C° 0 mm 5 m/S 751 mmHg 55%
    14:00 +22°C° 0 mm 5 m/S 751 mmHg 55%
    15:00 +22°C° 0 mm 5 m/S 752 mmHg 55%
    16:00 +21°C° 0 mm 5 m/S 752 mmHg 59%
    17:00 +21°C° 0 mm 4 m/S 752 mmHg 63%
    18:00 +20°C° 0 mm 4 m/S 752 mmHg 66%
    19:00 +19°C° 0 mm 3 m/S 752 mmHg 71%
    20:00 +17°C° 0 mm 3 m/S 753 mmHg 75%
    21:00 +16°C° 0 mm 3 m/S 753 mmHg 79%
    22:00 +15°C° 0 mm 2 m/S 753 mmHg 80%
    23:00 +14°C° 0 mm 2 m/S 753 mmHg 82%

    übermorgen, 26 August, Montag

    Zeit Temperatur Niederschläge Wind Luftdruck Luftfeuchtigkeit
    00:00 +14°C° 0 mm 2 m/S 754 mmHg 83%
    01:00 +13°C° 0 mm 2 m/S 754 mmHg 85%
    02:00 +13°C° 0 mm 2 m/S 754 mmHg 87%
    03:00 +12°C° 0 mm 1 m/S 754 mmHg 88%
    04:00 +12°C° 0 mm 1 m/S 754 mmHg 89%
    05:00 +12°C° 0 mm 1 m/S 754 mmHg 90%
    06:00 +12°C° 0 mm 1 m/S 754 mmHg 90%
    07:00 +13°C° 0 mm 1 m/S 754 mmHg 83%
    08:00 +15°C° 0 mm 1 m/S 754 mmHg 76%
    09:00 +18°C° 0 mm 1 m/S 755 mmHg 69%
    10:00 +19°C° 0 mm 1 m/S 755 mmHg 63%
    11:00 +20°C° 0 mm 1 m/S 754 mmHg 58%
    12:00 +21°C° 0 mm 1 m/S 754 mmHg 53%
    13:00 +22°C° 0 mm 1 m/S 754 mmHg 50%
    14:00 +22°C° 0 mm 1 m/S 754 mmHg 48%
    15:00 +21°C° 0 mm 0 m/S 753 mmHg 46%
    16:00 +23°C° 0 mm 1 m/S 753 mmHg 49%
    17:00 +22°C° 0 mm 1 m/S 753 mmHg 52%
    18:00 +22°C° 0 mm 1 m/S 752 mmHg 55%
    19:00 +20°C° 0 mm 1 m/S 752 mmHg 57%
    20:00 +19°C° 0 mm 1 m/S 752 mmHg 60%
    21:00 +18°C° 0 mm 1 m/S 752 mmHg 62%
    22:00 +16°C° 0 mm 1 m/S 752 mmHg 63%
    23:00 +16°C° 0 mm 2 m/S 751 mmHg 65%

    27 August, Dienstag

    Zeit Temperatur Niederschläge Wind Luftdruck Luftfeuchtigkeit
    00:00 +15°C° 0 mm 2 m/S 751 mmHg 67%
    01:00 +15°C° 0 mm 2 m/S 751 mmHg 68%
    02:00 +14°C° 0 mm 3 m/S 750 mmHg 69%
    03:00 +14°C° 0 mm 3 m/S 750 mmHg 70%
    04:00 +13°C° 0 mm 3 m/S 750 mmHg 72%
    05:00 +13°C° 0 mm 3 m/S 749 mmHg 74%
    06:00 +13°C° 0 mm 3 m/S 749 mmHg 76%
    07:00 +14°C° 0 mm 4 m/S 749 mmHg 74%
    08:00 +17°C° 0 mm 4 m/S 748 mmHg 72%
    09:00 +17°C° 0 mm 5 m/S 748 mmHg 70%
    10:00 +20°C° 0 mm 5 m/S 748 mmHg 66%
    11:00 +21°C° 0 mm 5 m/S 747 mmHg 62%
    12:00 +22°C° 0 mm 5 m/S 747 mmHg 58%
    13:00 +22°C° 0.1 mm 6 m/S 746 mmHg 58%
    14:00 +23°C° 0.1 mm 6 m/S 746 mmHg 58%
    15:00 +23°C° 0.1 mm 7 m/S 745 mmHg 58%
    16:00 +22°C° 0.5 mm 7 m/S 745 mmHg 63%
    17:00 +21°C° 0.5 mm 7 m/S 745 mmHg 68%
    18:00 +20°C° 0.5 mm 7 m/S 744 mmHg 73%
    19:00 +17°C° 0.1 mm 6 m/S 745 mmHg 75%
    20:00 +16°C° 0.1 mm 6 m/S 745 mmHg 77%
    21:00 +15°C° 0.1 mm 6 m/S 745 mmHg 79%
    22:00 +14°C° 0 mm 6 m/S 746 mmHg 79%
    23:00 +11°C° 0 mm 6 m/S 746 mmHg 79%

    28 August, Mittwoch

    Zeit Temperatur Niederschläge Wind Luftdruck Luftfeuchtigkeit
    00:00 +10°C° 0 mm 6 m/S 747 mmHg 80%
    01:00 +9°C° 0 mm 6 m/S 747 mmHg 79%
    02:00 +8°C° 0 mm 5 m/S 747 mmHg 79%
    03:00 +7°C° 0 mm 5 m/S 748 mmHg 79%
    04:00 +6°C° 0 mm 5 m/S 748 mmHg 79%
    05:00 +6°C° 0 mm 4 m/S 748 mmHg 79%
    06:00 +5°C° 0 mm 4 m/S 749 mmHg 79%
    07:00 +7°C° 0 mm 5 m/S 749 mmHg 74%
    08:00 +8°C° 0 mm 6 m/S 749 mmHg 69%
    09:00 +9°C° 0 mm 6 m/S 749 mmHg 64%
    10:00 +10°C° 0 mm 7 m/S 749 mmHg 60%
    11:00 +11°C° 0 mm 7 m/S 749 mmHg 57%
    12:00 +12°C° 0 mm 7 m/S 749 mmHg 54%
    13:00 +12°C° 0 mm 7 m/S 749 mmHg 53%
    14:00 +14°C° 0 mm 7 m/S 749 mmHg 51%
    15:00 +14°C° 0 mm 7 m/S 749 mmHg 50%
    16:00 +12°C° 0 mm 7 m/S 749 mmHg 53%
    17:00 +13°C° 0 mm 6 m/S 749 mmHg 55%
    18:00 +11°C° 0 mm 6 m/S 749 mmHg 57%
    19:00 +10°C° 0 mm 5 m/S 749 mmHg 62%
    20:00 +10°C° 0 mm 4 m/S 750 mmHg 66%
    21:00 +9°C° 0 mm 3 m/S 750 mmHg 71%
    22:00 +8°C° 0 mm 3 m/S 750 mmHg 73%
    23:00 +7°C° 0 mm 3 m/S 750 mmHg 76%

    29 August, Donnerstag

    Zeit Temperatur Niederschläge Wind Luftdruck Luftfeuchtigkeit
    00:00 +7°C° 0 mm 2 m/S 751 mmHg 79%
    01:00 +5°C° 0 mm 3 m/S 751 mmHg 80%
    02:00 +5°C° 0 mm 3 m/S 751 mmHg 82%
    03:00 +5°C° 0 mm 3 m/S 750 mmHg 83%
    04:00 +5°C° 0 mm 3 m/S 751 mmHg 83%
    05:00 +4°C° 0 mm 4 m/S 751 mmHg 83%
    06:00 +4°C° 0 mm 4 m/S 751 mmHg 83%
    07:00 +6°C° 0 mm 4 m/S 751 mmHg 76%
    08:00 +7°C° 0 mm 5 m/S 751 mmHg 70%
    09:00 +9°C° 0 mm 6 m/S 751 mmHg 64%
    10:00 +10°C° 0 mm 6 m/S 751 mmHg 61%
    11:00 +11°C° 0 mm 6 m/S 750 mmHg 58%
    12:00 +13°C° 0 mm 6 m/S 750 mmHg 54%
    13:00 +14°C° 0 mm 6 m/S 750 mmHg 53%
    14:00 +14°C° 0 mm 6 m/S 750 mmHg 52%
    15:00 +15°C° 0 mm 6 m/S 749 mmHg 51%
    16:00 +14°C° 0 mm 5 m/S 749 mmHg 54%
    17:00 +14°C° 0 mm 5 m/S 749 mmHg 57%
    18:00 +13°C° 0 mm 4 m/S 749 mmHg 60%
    19:00 +12°C° 0 mm 4 m/S 750 mmHg 64%
    20:00 +10°C° 0 mm 4 m/S 750 mmHg 67%
    21:00 +8°C° 0 mm 4 m/S 750 mmHg 71%
    22:00 +7°C° 0 mm 4 m/S 750 mmHg 75%
    23:00 +7°C° 0 mm 3 m/S 750 mmHg 78%
    Mehr zeigen